Hourly Data Report for October 06, 2017

All times are specified in Local Standard Time (LST). Add 1 hour to adjust for Daylight Saving Time where and when it is observed.

POINT LEPREAU CS
NEW BRUNSWICK

45°04'23.040" N
66°26'57.090" W
6.00 m
8104201
71699
WPE

Download Data

Hourly Data (October 2017)
Hourly Data Report for October 6, 2017
Temp Definition
°C
Dew Point Temp Definition
°C
Rel Hum Definition
%
Wind Dir Definition
10's deg

Wind Spd Definition
km/h
Visibility Definition
km
Stn Press Definition
kPa
Hmdx Definition


Wind Chill Definition


Weather Definition


TIME
00:00 13.6 12.5 93 30 6   101.30     LegendNANA
01:00 12.2 11.7 97 29 4   101.32     LegendNANA
02:00 11.1 10.5 96 31 4   101.33     LegendNANA
03:00 9.8 9.6 98 31 3   101.32     LegendNANA
04:00 9.6 9.3 98 28 4   101.36     LegendNANA
05:00 9.2 9.0 98 36 4   101.41     LegendNANA
06:00 8.9 8.5 97 36 4   101.50     LegendNANA
07:00 8.9 8.6 98 33 5   101.53     LegendNANA
08:00 12.7 10.1 84 32 5   101.60     LegendNANA
09:00 15.0 9.4 69 30 7   101.61     LegendNANA
10:00 15.7 9.9 68 27 4   101.63     LegendNANA
11:00 16.2 10.5 69 24 8   101.60     LegendNANA
12:00 14.6 10.5 77 22 10   101.61     LegendNANA
13:00 14.5 10.8 78 21 12   101.57     LegendNANA
14:00 13.8 11.2 84 19 12   101.56     LegendNANA
15:00 13.4 11.2 86 22 10   101.57     LegendNANA
16:00 13.9 11.6 86 22 10   101.54     LegendNANA
17:00 15.0 12.4 84 22 6   101.54     LegendNANA
18:00 12.2 11.1 93 19 6   101.59     LegendNANA
19:00 11.7 10.4 92 24 5   101.63     LegendNANA
20:00 11.5 10.7 95 24 5   101.66     LegendNANA
21:00 11.7 11.2 96 26 5   101.73     LegendNANA
22:00 11.0 10.8 98 30 4   101.81     LegendNANA
23:00 9.5 9.3 99 31 6   101.88     LegendNANA

Notes on Data Quality.

Legend

  • E = Estimated
  • M = Missing
  • NA = Not Available
  • ‡ = Partner data that is not subject to review by the National Climate Archives
Date modified: